Stations météo

Publicité
Lyon/Bron, France (7480): Température de l'air & dewpoint: 14.04.2019 14:00:00 - 20.04.2019 14:00:00 (CEST)Lyon/Bron, France (7480): Température de l'air 5cm: 14.04.2019 14:00:00 - 20.04.2019 14:00:00 (CEST)Lyon/Bron, France (7480): Température de l'air -20cm: 14.04.2019 14:00:00 - 20.04.2019 14:00:00 (CEST)Lyon/Bron, France (7480): Vitesse du vent & gusts: 14.04.2019 14:00:00 - 20.04.2019 14:00:00 (CEST)Lyon/Bron, France (7480): Direction du vent: 14.04.2019 14:00:00 - 20.04.2019 14:00:00 (CEST)Lyon/Bron, France (7480): reduced air pressure: 14.04.2019 14:00:00 - 20.04.2019 14:00:00 (CEST)Lyon/Bron, France (7480): visibility: 14.04.2019 14:00:00 - 20.04.2019 14:00:00 (CEST)Lyon/Bron, France (7480): Ensoleillement: 14.04.2019 14:00:00 - 20.04.2019 14:00:00 (CEST)Lyon/Bron, France (7480): Quantités de précipitations: 14.04.2019 14:00:00 - 20.04.2019 14:00:00 (CEST)
Date & Time tt [°C] td [°C] tt 5cm [°C] tt -20cm [°C] ff [km/h] ff [knt] fx [km/h] fx [knt] dd ppp [hPa] vv [km] sd [min] rr [mm]
20.04.2019 14:00:00 22,3 4,8 29,0 14,9 8 5 17 9 E 1022,1 43 60 0,0
20.04.2019 13:00:00 21,4 5,7 28,0 14,6 5 3 20 11 N 1022,9 20 60 0,0
20.04.2019 12:00:00 20,6 5,8 26,1 14,6 5 3 9 5 N 1023,7 19 60 0,0
20.04.2019 11:00:00 19,4 5,4 22,6 14,6 3 2 9 5 N 1024,3 39 60 0,0
20.04.2019 10:00:00 16,8 5,1 19,6 14,7 6 3 11 6 SW 1024,8 45 60 0,0
20.04.2019 09:00:00 14,7 6,0 12,2 14,8 8 4 11 6 S 1025,1 49 55 0,0
20.04.2019 08:00:00 11,3 5,4 5,6 15,0 3 1 5 3 NNE 1025,4 40 42 0,0
20.04.2019 07:00:00 9,5 4,7 5,4 15,2 3 1 6 4 NNE 1025,2 42 0 0,0
20.04.2019 06:00:00 10,6 4,7 6,2 15,3 2 1 8 5 SE 1024,9 19 0 0,0
20.04.2019 05:00:00 12,3 4,8 7,2 15,5 5 3 8 5 E 1025,1 47 0 0,0
20.04.2019 04:00:00 13,8 4,4 9,0 15,6 8 4 21 11 S 1024,9 57 0 0,0
20.04.2019 03:00:00 14,5 4,8 11,2 15,7 5 3 16 9 S 1024,9 52 0 0,0
20.04.2019 02:00:00 15,8 5,4 13,7 15,9 9 5 27 14 S 1025,2 52 0 0,0
20.04.2019 01:00:00 16,9 5,8 14,2 16,0 18 10 29 15 SSW 1024,9 47 0 0,0
20.04.2019 00:00:00 17,3 5,9 12,2 16,1 7 4 13 7 S 1024,7 43 0 0,0
19.04.2019 23:00:00 17,2 6,7 12,3 16,2 7 4 14 8 SSE 1024,8 43 0 0,0
19.04.2019 22:00:00 19,1 6,6 16,3 16,2 6 3 16 8 ESE 1024,4 46 0 0,0
19.04.2019 21:00:00 20,4 4,4 15,6 16,2 5 3 8 4 E 1023,9 51 0 0,0
19.04.2019 20:00:00 22,5 4,0 20,2 16,0 7 4 9 5 ENE 1023,2 56 39 0,0
19.04.2019 19:00:00 24,4 3,6 28,7 15,7 2 1 10 5 E 1022,9 54 60 0,0
19.04.2019 18:00:00 24,5 3,2 29,6 15,3 2 1 12 6 SSW 1022,9 56 60 0,0
19.04.2019 17:00:00 25,3 4,4 30,2 15,0 4 2 11 6 NNW 1023,0 52 60 0,0
19.04.2019 16:00:00 24,3 4,6 28,6 14,5 5 3 14 8 W 1023,4 41 60 0,0
19.04.2019 15:00:00 23,9 5,3 28,2 14,2 9 5 27 14 SSE 1024,0 20 60 0,0
19.04.2019 14:00:00 22,5 4,5 27,5 13,9 8 4 19 10 SSE 1024,5 20 60 0,0
19.04.2019 13:00:00 21,7 5,6 26,0 13,7 12 6 22 12 S 1024,9 38 60 0,0
19.04.2019 12:00:00 20,6 4,2 25,4 13,6 14 8 20 11 S 1025,3 58 60 0,0
19.04.2019 11:00:00 18,9 6,0 20,8 13,6 4 2 7 4 S 1025,6 19 48 0,0
19.04.2019 10:00:00 16,5 6,9 16,0 13,6 0 0 4 2 N 1025,7 20 34 0,0
19.04.2019 09:00:00 13,2 7,8 9,1 13,8 0 0 2 1 N 1025,6 17 5 0,0
19.04.2019 08:00:00 9,5 6,0 4,9 13,9 2 1 5 3 NE 1025,3 8 0 0,0
19.04.2019 07:00:00 8,5 5,4 4,5 14,1 0 0 5 3 N 1024,4 20 0 0,0
19.04.2019 06:00:00 9,3 6,0 4,6 14,2 2 1 3 2 SW 1023,6 23 0 0,0
19.04.2019 05:00:00 11,0 5,7 6,7 14,3 2 1 9 5 NE 1023,3 28 0 0,0
19.04.2019 04:00:00 11,7 5,3 7,1 14,5 2 1 5 3 ENE 1022,9 18 0 0,0
19.04.2019 03:00:00 14,0 4,8 11,0 14,5 3 1 14 8 N 1022,6 36 0 0,0
19.04.2019 02:00:00 15,2 4,5 12,8 14,6 12 7 18 10 S 1022,3 41 0 0,0
19.04.2019 01:00:00 15,4 4,7 12,2 14,8 13 7 19 11 S 1022,0 42 0 0,0
19.04.2019 00:00:00 15,8 4,8 13,2 14,8 8 5 15 8 S 1021,8 46 0 0,0
18.04.2019 23:00:00 16,9 4,6 14,5 15,0 7 4 20 11 SSE 1021,1 44 0 0,0
18.04.2019 22:00:00 18,5 4,3 16,3 15,0 16 9 30 16 S 1020,4 50 0 0,0
18.04.2019 21:00:00 18,9 5,0 17,0 14,9 13 7 23 13 SSE 1019,6 55 0 0,0
18.04.2019 20:00:00 20,5 4,9 19,0 14,8 14 7 23 12 S 1018,8 51 0 0,0
18.04.2019 19:00:00 21,6 5,5 21,4 14,6 16 8 24 13 SSE 1018,2 50 0 0,0
18.04.2019 18:00:00 22,5 5,8 23,6 14,4 16 9 31 17 SSE 1017,7 20 35 0,0
18.04.2019 17:00:00 23,1 5,9 26,0 14,1 16 9 29 16 SSE 1017,6 43 56 0,0
18.04.2019 16:00:00 22,9 6,2 24,2 13,8 19 11 37 20 S 1017,6 60 51 0,0
18.04.2019 15:00:00 21,9 5,3 24,3 13,5 20 11 40 22 S 1018,1 54 48 0,0
18.04.2019 14:00:00 21,1 5,4 23,9 13,3 24 13 44 24 S 1018,3 20 60 0,0
18.04.2019 13:00:00 20,3 4,7 23,2 13,1 26 14 44 24 S 1018,9 56 60 0,0
18.04.2019 12:00:00 19,6 3,7 22,7 13,0 23 12 42 23 S 1019,5 55 60 0,0
18.04.2019 11:00:00 18,0 3,8 21,2 13,0 21 12 38 20 S 1019,8 51 58 0,0
18.04.2019 10:00:00 16,5 4,8 16,7 13,0 14 7 26 14 SSE 1020,0 54 60 0,0
18.04.2019 09:00:00 12,8 6,6 11,6 13,2 6 3 24 13 SSW 1020,4 40 11 0,0
18.04.2019 08:00:00 11,5 6,2 9,9 13,3 13 7 25 14 SSE 1019,9 53 19 0,0
18.04.2019 07:00:00 10,8 5,7 9,0 13,4 14 7 22 12 SE 1019,3 47 0 0,0
18.04.2019 06:00:00 10,8 5,7 8,7 13,6 11 6 18 10 SE 1019,1 57 0 0,0
18.04.2019 05:00:00 11,5 5,8 10,0 13,7 13 7 22 12 SE 1019,2 60 0 0,0
18.04.2019 04:00:00 11,9 5,7 10,6 13,8 14 7 22 12 SE 1019,3 60 0 0,0
18.04.2019 03:00:00 12,6 5,3 11,4 13,9 13 7 35 19 SSE 1019,4 60 0 0,0
18.04.2019 02:00:00 13,3 5,0 12,2 14,1 26 14 36 19 S 1019,4 60 0 0,0
18.04.2019 01:00:00 14,5 4,5 13,5 14,1 21 12 41 22 S 1019,6 60 0 0,0
18.04.2019 00:00:00 14,9 5,7 13,7 14,3 23 12 40 21 S 1018,7 58 0 0,0
17.04.2019 23:00:00 15,4 7,2 13,9 14,4 19 10 29 15 S 1018,2 54 0 0,0
17.04.2019 22:00:00 15,9 6,0 13,3 14,3 16 8 23 13 S 1017,8 60 0 0,0
17.04.2019 21:00:00 16,6 6,4 13,6 14,3 9 5 13 7 SE 1017,2 58 0 0,0
17.04.2019 20:00:00 18,8 5,9 17,1 14,2 10 5 25 13 SE 1016,4 60 17 0,0
17.04.2019 19:00:00 20,8 6,0 21,5 13,9 16 8 29 16 SSE 1015,9 56 50 0,0
17.04.2019 18:00:00 22,0 5,0 25,1 13,6 18 10 36 20 SSE 1015,8 39 60 0,0
17.04.2019 17:00:00 22,1 4,6 25,3 13,2 23 13 38 20 S 1016,1 60 60 0,0
17.04.2019 16:00:00 21,5 3,6 24,8 12,8 20 11 35 19 S 1016,7 60 60 0,0
17.04.2019 15:00:00 20,8 4,8 24,3 12,4 19 10 35 19 SSE 1017,3 49 60 0,0
17.04.2019 14:00:00 19,6 6,7 22,5 12,0 12 6 26 14 SSE 1018,2 56 54 0,0
17.04.2019 13:00:00 17,8 8,4 21,8 11,7 9 5 20 11 SSE 1018,9 50 50 0,0
17.04.2019 12:00:00 16,7 7,9 21,7 11,5 3 1 15 8 NNW 1019,6 40 60 0,0
17.04.2019 11:00:00 15,3 8,3 18,4 11,5 6 3 15 8 S 1020,2 20 60 0,0
17.04.2019 10:00:00 12,5 7,4 15,8 11,6 4 2 13 7 SSE 1020,6 19 60 0,0
17.04.2019 09:00:00 10,4 7,3 6,1 11,7 3 2 8 5 SE 1021,0 12 60 0,0
17.04.2019 08:00:00 7,1 6,8 1,9 11,8 2 1 9 5 E 1021,4 6 42 0,0
17.04.2019 07:00:00 5,8 5,1 2,3 11,9 8 4 8 5 SE 1021,1 9 0 0,0
17.04.2019 06:00:00 5,7 5,0 1,2 12,1 5 3 7 4 SE 1021,0 10 0 0,0
17.04.2019 05:00:00 6,0 5,1 2,0 12,2 0 0 4 2 N 1020,8 11 0 0,0
17.04.2019 04:00:00 7,2 5,7 3,5 12,3 3 2 6 3 SSE 1021,0 16 0 0,0
17.04.2019 03:00:00 9,1 6,9 6,2 12,4 4 2 5 3 SE 1020,9 24 0 0,0
17.04.2019 02:00:00 10,1 7,0 8,0 12,4 0 0 3 1 N 1021,0 29 0 0,0
17.04.2019 01:00:00 10,3 6,6 8,3 12,5 0 0 8 4 N 1021,0 35 0 0,0
17.04.2019 00:00:00 10,5 6,6 6,7 12,6 5 3 14 8 SE 1021,0 37 0 0,0
16.04.2019 23:00:00 9,8 6,0 6,6 12,7 3 1 8 5 NNW 1021,1 50 0 0,0
16.04.2019 22:00:00 11,3 5,8 8,5 12,7 6 3 14 8 SE 1020,4 58 0 0,0
16.04.2019 21:00:00 12,5 5,9 11,0 12,7 10 5 21 11 S 1019,9 59 0 0,0
16.04.2019 20:00:00 13,4 6,7 12,8 12,6 9 5 28 15 SSE 1019,4 60 0 0,0
16.04.2019 19:00:00 14,2 6,5 14,4 12,6 19 11 35 19 S 1019,2 52 31 0,0
16.04.2019 18:00:00 13,8 6,9 14,0 12,5 18 10 33 18 S 1019,1 60 0 0,0
16.04.2019 17:00:00 13,7 7,9 13,0 12,5 21 11 36 19 S 1019,1 59 0 0,0
16.04.2019 16:00:00 12,8 7,9 12,6 12,4 23 12 42 23 SSW 1019,5 50 0 0,0
16.04.2019 15:00:00 12,7 8,6 13,7 12,3 27 15 45 24 SSW 1019,8 41 0 0,2
16.04.2019 14:00:00 12,9 7,8 12,6 12,3 24 13 45 24 SSW 1019,6 40 0 0,0
16.04.2019 13:00:00 11,9 6,8 11,9 12,3 25 13 41 22 SSW 1019,8 26 0 0,2
16.04.2019 12:00:00 12,0 6,5 11,2 12,3 22 12 35 19 S 1019,5 53 0 0,0
16.04.2019 11:00:00 11,5 6,2 10,3 12,3 19 10 35 19 S 1019,3 46 0 0,0
16.04.2019 10:00:00 10,9 7,8 9,2 12,4 11 6 19 11 S 1019,0 18 0 0,2
16.04.2019 09:00:00 10,5 7,6 8,5 12,4 14 8 23 12 S 1018,8 15 0 0,4
16.04.2019 08:00:00 10,4 6,7 8,3 12,5 14 7 34 19 S 1018,2 18 0 0,6
16.04.2019 07:00:00 11,2 6,3 8,8 12,6 19 11 42 23 S 1017,7 12 0 0,0
16.04.2019 06:00:00 12,6 3,8 11,7 12,7 29 15 45 24 S 1017,0 60 0 0,0
16.04.2019 05:00:00 13,0 2,8 12,2 12,8 24 13 41 22 S 1016,9 60 0 0,0
16.04.2019 04:00:00 13,3 2,8 12,2 12,8 30 16 49 27 S 1016,7 60 0 0,0
16.04.2019 03:00:00 13,0 3,6 12,0 12,9 25 13 47 25 S 1016,3 60 0 0,0
16.04.2019 02:00:00 12,9 3,8 12,0 13,0 18 10 36 20 S 1016,5 60 0 0,0
16.04.2019 01:00:00 12,8 3,7 11,7 13,1 19 10 40 22 S 1015,6 60 0 0,0
16.04.2019 00:00:00 12,7 3,9 11,8 13,2 25 14 47 26 S 1015,7 60 0 0,0
15.04.2019 23:00:00 12,8 4,7 11,8 13,3 24 13 44 24 S 1015,6 59 0 0,0
15.04.2019 22:00:00 13,7 4,6 12,6 13,3 20 11 43 23 SSE 1015,4 60 0 0,0
15.04.2019 21:00:00 14,7 3,8 13,6 13,3 19 10 33 18 SSE 1014,8 60 0 0,0
15.04.2019 20:00:00 15,9 3,0 14,9 13,2 21 11 46 25 S 1014,2 60 0 0,0
15.04.2019 19:00:00 17,5 2,2 17,5 13,0 26 14 44 24 S 1013,7 59 23 0,0
15.04.2019 18:00:00 18,4 0,5 20,3 12,7 26 14 46 25 S 1013,5 20 55 0,0
15.04.2019 17:00:00 18,0 0,1 19,7 12,3 25 13 44 24 SSE 1014,2 53 27 0,0
15.04.2019 16:00:00 18,1 0,7 21,4 11,9 20 11 40 22 S 1014,9 38 55 0,0
15.04.2019 15:00:00 17,2 -0,1 20,0 11,5 21 12 37 20 SSE 1016,1 20 60 0,0
15.04.2019 14:00:00 14,4 1,6 19,1 11,2 10 6 21 11 SE 1017,6 18 60 0,0
15.04.2019 13:00:00 12,2 2,6 18,3 11,0 10 6 21 12 ENE 1018,8 14 60 0,0
15.04.2019 12:00:00 10,7 1,8 15,9 10,9 4 2 11 6 SSE 1019,8 12 60 0,0
15.04.2019 11:00:00 9,0 1,2 14,1 10,9 3 2 11 6 W 1020,4 9 60 0,0
15.04.2019 10:00:00 7,0 0,6 11,5 11,1 0 0 8 4 N 1020,9 8 60 0,0
15.04.2019 09:00:00 4,9 1,0 0,9 11,2 2 1 6 3 N 1021,5 7 60 0,0
15.04.2019 08:00:00 1,4 -1,0 -1,8 11,4 4 2 6 3 SSE 1021,7 10 14 0,0
15.04.2019 07:00:00 1,0 -0,9 -3,4 11,6 4 2 6 3 SSE 1021,5 8 0 0,0
15.04.2019 06:00:00 0,6 -1,5 -2,9 11,7 2 1 4 2 S 1021,2 7 0 0,0
15.04.2019 05:00:00 1,4 -1,2 -2,1 11,9 2 1 6 4 NW 1021,4 9 0 0,0
15.04.2019 04:00:00 3,2 -0,6 0,7 12,1 5 3 13 7 NE 1021,4 10 0 0,0
15.04.2019 03:00:00 4,1 -0,7 1,2 12,3 5 3 21 11 N 1021,3 13 0 0,0
15.04.2019 02:00:00 5,2 -0,8 4,0 12,4 11 6 25 13 N 1021,3 14 0 0,0
15.04.2019 01:00:00 5,8 -1,4 4,0 12,6 16 9 21 12 NNW 1021,3 16 0 0,0
15.04.2019 00:00:00 6,2 -2,7 4,6 12,7 13 7 27 15 NNW 1021,1 19 0 0,0
14.04.2019 23:00:00 7,1 -4,1 5,5 12,8 16 9 28 15 NNW 1020,3 22 0 0,0
14.04.2019 22:00:00 7,7 -4,1 6,1 12,9 16 8 30 16 NNW 1020,4 24 0 0,0
14.04.2019 21:00:00 8,1 -3,7 6,7 12,9 18 10 29 16 NNW 1020,0 25 2 0,0
14.04.2019 20:00:00 9,0 -3,9 8,7 12,8 23 12 41 22 N 1019,6 29 34 0,0
14.04.2019 19:00:00 9,9 -4,1 10,2 12,6 24 13 37 20 NNW 1018,7 31 49 0,0
14.04.2019 18:00:00 10,9 -4,4 14,6 12,4 23 13 39 21 N 1018,4 20 60 0,0
14.04.2019 17:00:00 11,0 -3,9 15,0 12,1 24 13 42 23 N 1018,0 30 60 0,0
14.04.2019 16:00:00 10,6 -4,3 15,0 11,8 25 13 53 29 NNW 1018,4 20 60 0,0
14.04.2019 15:00:00 10,1 -3,3 15,1 11,5 25 14 42 23 N 1018,8 19 60 0,0
14.04.2019 14:00:00 9,0 -4,2 14,5 11,3 27 15 43 23 N 1018,8 19 60 0,0

tt = Température de l'air
td = dewpoint
tt 5cm = Température de l'air 5cm
tt -20cm = Température de l'air -20cm
ff = Vitesse du vent
fx = gusts
dd = Direction du vent
ppp = reduced air pressure
vv = visibility
sd = Ensoleillement
rr = Quantités de précipitations

stations d'obs. à proximité